Location: Dos Palmas
(32.4468°N, 116.8732°W)
Time: 03:59:39
(UTC+00:00)

SL-8 R/B - Pass Details

Date: 20 June 2021
Orbit: 656 x 667 km, 48.4° (Epoch: 29 July)

Event Time Altitude Azimuth Distance (km) Brightness Sun altitude
Rises 05:33:39 0° 314° (NW) 2,988 8.4 -25.4°
Reaches altitude 10° 05:36:05 10° 320° (NW) 2,072 7.3 -25.7°
Maximum altitude 05:40:41 46° 34° (NE) 880 4.4 -26.3°
Enters shadow 05:40:51 46° 41° (NE) 882 4.3 -26.3°
